This demonstration page uses our WeatherBlox Daily Observations layout. Learn more.

Left ArrowRight Arrow

31.31129, -92.44514

Hourly Observations for July 6, 2022

Temp ( °F °C ) Dew Point ( °F °C ) Humidity (%) Winds ( mph kmh ) Pressure ( in mb ) Visibility ( mi km ) Precip ( " mm )
12:53 am 00:53 Clear 81 27.2 77 25 88 88 S 6 9 29.97 1015 9 14 0.00 0.00
1:53 am 01:53 Clear 80 26.7 77 25 90 90 S 5 7 29.97 1015 8 13 0.00 0.00
2:53 am 02:53 Mostly Cloudy 81 27.2 76 24.4 85 85 SSE 6 9 29.97 1015 10 16 0.00 0.00
3:53 am 03:53 Clear 81 27.2 76 24.4 85 85 Calm 29.96 1015 10 16 0.00 0.00
4:53 am 04:53 Clear 81 27.2 76 24.4 85 85 Calm 29.98 1015 10 16 0.00 0.00
5:53 am 05:53 Clear 80 26.7 76 24.4 87 87 SSE 3 6 29.97 1015 9 14 0.00 0.00
6:53 am 06:53 Sunny 80 26.7 77 25 90 90 SSE 3 6 29.99 1016 7 11 0.00 0.00
7:53 am 07:53 Sunny 83 28.3 77 25 82 82 S 5 7 30.01 1016 9 14 0.00 0.00
8:53 am 08:53 Partly Cloudy 86 30 77 25 75 75 SW 3 6 30.02 1017 10 16 0.00 0.00
9:32 am 09:32 Mostly Cloudy 86 30 77 25 75 75 WSW 6 9 30.02 1016 10 16 0.00 0.00
9:39 am 09:39 Partly Cloudy 87 30.6 77 25 72 72 W 5 7 30.01 1016 10 16 0.00 0.00
9:53 am 09:53 Partly Cloudy 88 31.1 77 25 70 70 VRB 5 7 30.02 1017 10 16 0.00 0.00
10:53 am 10:53 Mostly Cloudy 90 32.2 75 23.9 62 62 W 6 9 30.01 1016 10 16 0.00 0.00
11:53 am 11:53 Partly Cloudy 91 32.8 74 23.3 57 57 W 6 9 30.00 1016 10 16 0.00 0.00
12:53 pm 12:53 Mostly Sunny 94 34.4 72 22.2 49 49 WNW 7 11 29.99 1016 10 16 0.00 0.00
1:53 pm 13:53 Mostly Cloudy 86 30 75 23.9 70 70 S 18 30 29.99 1016 10 16 0.00 0.00
2:02 pm 14:02 Cloudy with Nearby Thunderstorms 85 29.4 74 23.3 70 70 SSW 17 28 30.00 1016 10 16 0.00 0.00
2:30 pm 14:30 Cloudy with Thunderstorms 81 27.2 74 23.3 79 79 S 17 28 30.00 1016 10 16 0.00 0.00
2:45 pm 14:45 Cloudy 80 26.7 74 23.3 82 82 S 14 22 30.00 1016 10 16 0.00 0.00
2:53 pm 14:53 Cloudy 79 26.1 75 23.9 88 88 S 14 22 29.99 1016 6 10 0.00 0.00
3:53 pm 15:53 Mostly Cloudy 79 26.1 75 23.9 88 88 SSE 5 7 29.98 1015 7 11 0.03 0.76
4:53 pm 16:53 Sunny 80 26.7 76 24.4 87 87 E 5 7 29.99 1016 9 14 0.00 0.00
5:53 pm 17:53 Mostly Cloudy 82 27.8 76 24.4 82 82 Calm 29.97 1015 10 16 0.00 0.00
6:53 pm 18:53 Sunny 82 27.8 76 24.4 82 82 Calm 29.97 1015 10 16 0.00 0.00
7:53 pm 19:53 Sunny 82 27.8 76 24.4 82 82 SE 6 9 29.95 1014 10 16 0.00 0.00
8:53 pm 20:53 Clear 80 26.7 77 25 90 90 SE 6 9 29.95 1014 9 14 0.00 0.00
9:53 pm 21:53 Clear 80 26.7 77 25 90 90 ESE 7 11 29.97 1015 10 16 0.00 0.00
10:53 pm 22:53 Clear 80 26.7 76 24.4 87 87 SSE 5 7 29.98 1015 9 14 0.00 0.00
11:53 pm 23:53 Clear 79 26.1 76 24.4 90 90 SSE 3 6 29.98 1015 9 14 0.00 0.00

Powered by AerisWeather